Powrót do katalogu

STARLINK-11555

AktywnyŁącznośćVLEO
NORAD 62915·PAYLOAD·🇺🇸 United States

Wystrzelony Feb 8, 2025 z Cape Canaveral Space Force Station

Loading…

Następne Przeloty (najbliższe 24 godziny)

TLE

ŚwieżeSource: CelesTrak SupGP

Epoka: Sep 14, 2026, 20:37 UTC

1 62915C 25027J   26257.85951389 -.00068217  00000+0 -52998-3 0  2577
2 62915  43.0007 287.6777 0001548 253.7478 357.5461 15.70866145    12

Śledź STARLINK-11555 w czasie rzeczywistym z AllMySat

Download on the App Store